Stations météo

Publicité
Bastia, France (7790): Température de l'air & dewpoint: 25.10.2020 23:00:00 - 31.10.2020 23:00:00 (CET)Bastia, France (7790): Température de l'air 5cm: 25.10.2020 23:00:00 - 31.10.2020 23:00:00 (CET)Bastia, France (7790): Température de l'air -20cm & Température de l'air -100cm: 25.10.2020 23:00:00 - 31.10.2020 23:00:00 (CET)Bastia, France (7790): Vitesse du vent & gusts: 25.10.2020 23:00:00 - 31.10.2020 23:00:00 (CET)Bastia, France (7790): Direction du vent: 25.10.2020 23:00:00 - 31.10.2020 23:00:00 (CET)Bastia, France (7790): reduced air pressure: 25.10.2020 23:00:00 - 31.10.2020 23:00:00 (CET)Bastia, France (7790): visibility: 25.10.2020 23:00:00 - 31.10.2020 23:00:00 (CET)Bastia, France (7790): Ensoleillement: 25.10.2020 23:00:00 - 31.10.2020 23:00:00 (CET)Bastia, France (7790): Quantités de précipitations: 25.10.2020 23:00:00 - 31.10.2020 23:00:00 (CET)
Date & Time tt [°C] td [°C] tt 5cm [°C] tt -20cm [°C] tt -100cm [°C] ff [km/h] ff [knt] fx [km/h] fx [knt] dd ppp [hPa] vv [km] sd [min] rr [mm]
31.10.2020 23:00:00 16,3 12,5 15,1 16,6 18,1 11 6 22 12 WSW 1024,0 37 0 0,0
31.10.2020 22:00:00 16,2 13,1 15,3 16,6 18,1 0 0 11 6 N 1024,1 48 0 0,0
31.10.2020 21:00:00 16,2 14,2 15,4 16,6 18,1 0 0 8 4 N 1023,8 8 0 0,0
31.10.2020 20:00:00 16,2 14,4 15,6 16,6 18,2 6 4 9 5 S 1023,8 11 0 0,0
31.10.2020 19:00:00 16,9 14,2 15,7 16,5 18,1 6 3 9 5 NW 1024,1 14 0 0,0
31.10.2020 18:00:00 17,0 14,1 16,0 16,4 18,1 0 0 4 2 N 1023,7 48 0 0,0
31.10.2020 17:00:00 17,5 14,0 16,9 16,3 18,1 3 1 7 4 SE 1023,7 0,7 0 0,0
31.10.2020 16:00:00 17,9 13,8 18,2 16,2 18,2 5 3 11 6 ENE 1023,7 47 0 0,0
31.10.2020 15:00:00 18,2 13,9 19,2 16,3 18,1 4 2 12 6 ENE 1023,9 20 0 0,0
31.10.2020 14:00:00 18,5 13,8 21,0 16,3 18,1 7 4 17 9 E 1024,1 48 0 0,0
31.10.2020 13:00:00 18,9 14,0 20,0 16,3 18,2 10 5 15 8 E 1024,5 19 5 0,0
31.10.2020 12:00:00 18,5 12,9 20,2 16,3 18,2 7 4 16 9 ENE 1024,9 20 8 0,0
31.10.2020 11:00:00 19,6 13,5 23,3 16,3 18,2 6 3 14 8 ENE 1025,4 44 58 0,0
31.10.2020 10:00:00 17,4 13,5 17,4 16,4 18,2 5 3 10 5 SSW 1025,3 20 47 0,0
31.10.2020 09:00:00 15,1 12,0 11,4 16,4 18,2 6 3 11 6 SSW 1025,3 53 60 0,0
31.10.2020 08:00:00 11,8 10,7 8,0 16,5 18,2 6 4 10 5 SSW 1025,3 37 43 0,0
31.10.2020 07:00:00 10,5 9,4 7,5 16,5 18,2 7 4 13 7 SW 1024,8 59 0 0,0
31.10.2020 06:00:00 10,1 9,3 7,3 16,6 18,2 6 4 10 5 SW 1024,7 48 0 0,0
31.10.2020 05:00:00 10,4 9,6 7,9 16,6 18,2 7 4 11 6 SW 1025,0 46 0 0,0
31.10.2020 04:00:00 10,6 10,0 8,1 16,7 18,2 6 4 10 5 SW 1025,0 45 0 0,0
31.10.2020 03:00:00 10,8 10,2 6,5 16,7 18,2 8 4 10 6 SW 1025,0 40 0 -
31.10.2020 02:00:00 - - 8,3 16,7 18,2 7 4 10 5 SW - 35 0 0,0
31.10.2020 01:00:00 11,1 10,6 8,4 16,7 18,2 6 4 8 4 SSW 1025,3 24 - 0,0
31.10.2020 00:00:00 11,7 11,1 6,8 16,7 18,2 6 3 10 6 SW 1025,4 16 0 0,0
30.10.2020 23:00:00 11,7 11,1 6,9 16,7 18,2 3 2 8 5 WSW 1025,3 17 0 0,0
30.10.2020 22:00:00 12,2 11,6 7,6 16,7 18,2 8 4 11 6 SW 1025,3 18 0 0,0
30.10.2020 21:00:00 12,7 12,1 7,5 16,7 18,2 5 3 9 5 WSW 1025,2 9 0 0,0
30.10.2020 20:00:00 13,3 12,4 8,2 16,6 18,2 6 4 9 5 SW 1024,7 8 0 0,0
30.10.2020 19:00:00 13,9 12,9 9,9 16,6 18,2 5 3 7 4 WSW 1024,6 9 0 0,0
30.10.2020 18:00:00 15,2 13,6 10,5 16,5 18,2 4 2 8 4 SSW 1024,2 6 0 0,0
30.10.2020 17:00:00 17,6 14,3 17,0 16,4 18,2 7 4 16 8 SE 1024,0 54 55 0,0
30.10.2020 16:00:00 18,6 14,7 19,6 16,3 18,2 9 5 14 7 ESE 1023,7 44 24 0,0
30.10.2020 15:00:00 19,0 14,7 23,1 16,3 18,2 11 6 19 10 SE 1023,8 18 50 0,0
30.10.2020 14:00:00 19,8 15,0 25,8 16,3 18,3 11 6 18 10 ESE 1023,7 20 60 0,0
30.10.2020 13:00:00 20,0 14,6 25,3 16,3 18,3 10 5 19 10 ESE 1023,8 48 60 0,0
30.10.2020 12:00:00 19,1 15,0 23,8 16,3 18,2 9 5 19 10 SE 1024,2 20 39 0,0
30.10.2020 11:00:00 19,3 13,0 23,4 16,4 18,3 10 5 15 8 ESE 1024,6 60 57 0,0
30.10.2020 10:00:00 18,2 10,8 17,5 16,4 18,3 7 4 18 10 SSW 1024,3 58 58 0,0
30.10.2020 09:00:00 15,8 9,9 11,4 16,4 18,3 10 6 18 10 SW 1024,1 45 60 0,0
30.10.2020 08:00:00 12,0 9,4 7,9 16,5 18,3 6 3 12 6 SSW 1023,9 60 10 0,0
30.10.2020 07:00:00 10,5 8,4 7,3 16,5 18,3 8 4 12 6 SW 1023,7 60 0 0,0
30.10.2020 06:00:00 12,1 8,8 9,2 16,6 18,3 10 5 18 10 SW 1023,2 60 0 0,0
30.10.2020 05:00:00 11,4 8,8 9,3 16,6 18,3 9 5 19 10 SSW 1022,7 60 0 0,0
30.10.2020 04:00:00 11,5 9,2 9,2 16,6 18,3 9 5 13 7 SSW 1022,5 60 0 0,0
30.10.2020 03:00:00 12,4 9,6 9,6 16,6 18,3 7 4 21 11 SW 1022,7 60 0 0,0
30.10.2020 02:00:00 11,9 10,0 9,7 16,7 18,3 9 5 17 9 SSW 1022,5 54 0 0,0
30.10.2020 01:00:00 13,4 11,1 9,6 16,7 18,3 11 6 22 12 SSW 1022,1 49 0 0,0
30.10.2020 00:00:00 11,6 10,8 8,7 16,7 18,3 9 5 15 8 SW 1022,5 37 0 0,0
29.10.2020 23:00:00 11,4 10,9 6,8 16,7 18,3 7 4 10 5 SW 1022,8 23 0 0,0
29.10.2020 22:00:00 11,9 11,3 7,5 16,7 18,3 3 1 10 5 S 1022,7 15 0 0,0
29.10.2020 21:00:00 12,3 11,5 9,9 16,6 18,4 8 4 11 6 SW 1022,0 20 0 -
29.10.2020 20:00:00 12,8 11,9 9,7 16,6 18,3 6 3 8 4 SW 1021,4 13 0 0,0
29.10.2020 19:00:00 13,8 12,5 9,9 16,5 18,4 3 2 9 5 W 1021,0 9 0 0,0
29.10.2020 18:00:00 15,1 13,5 10,7 16,4 18,3 5 3 7 4 S 1020,1 30 0 0,0
29.10.2020 17:00:00 16,8 13,9 14,5 16,4 18,4 4 2 10 6 SE 1019,8 0,9 1 0,0
29.10.2020 16:00:00 18,0 14,5 18,8 16,3 18,4 4 2 16 9 SE 1019,9 16 0 0,0
29.10.2020 15:00:00 19,1 13,9 21,8 16,3 18,4 5 3 16 9 ESE 1019,5 18 11 0,0
29.10.2020 14:00:00 19,5 13,7 24,3 16,3 18,4 9 5 17 9 E 1019,4 46 51 0,0
29.10.2020 13:00:00 19,3 13,2 24,8 16,3 18,4 9 5 21 11 E 1019,4 44 52 0,0
29.10.2020 12:00:00 19,7 10,9 26,3 16,3 18,4 8 4 15 8 ENE 1019,7 60 60 0,0
29.10.2020 11:00:00 19,1 13,3 22,1 16,3 18,4 4 2 9 5 NNE 1019,8 47 35 0,0
29.10.2020 10:00:00 18,1 12,5 18,4 16,3 18,4 2 1 7 4 N 1019,4 52 55 0,0
29.10.2020 09:00:00 14,1 10,5 10,4 16,4 18,4 5 3 11 6 SW 1018,8 53 21 0,0
29.10.2020 08:00:00 10,6 8,4 7,7 16,4 18,4 9 5 13 7 SW 1019,1 42 0 0,0
29.10.2020 07:00:00 10,2 7,6 7,6 16,5 18,4 6 3 16 9 SW 1018,6 60 0 0,0
29.10.2020 06:00:00 10,7 7,6 9,1 16,5 18,4 10 6 20 11 SSW 1018,2 60 0 0,0
29.10.2020 05:00:00 10,8 7,8 7,4 16,6 18,5 14 8 22 12 S 1018,6 60 0 0,0
29.10.2020 04:00:00 10,6 7,7 7,6 16,6 18,4 14 8 21 12 SSW 1018,6 60 0 0,0
29.10.2020 03:00:00 10,5 7,6 8,2 16,6 18,5 9 5 15 8 SSW 1018,8 60 0 0,0
29.10.2020 02:00:00 11,8 7,9 10,2 16,6 18,4 9 5 23 13 SSW 1018,8 60 0 -
29.10.2020 01:00:00 12,3 7,8 10,3 16,7 18,5 13 7 23 12 SSW 1019,2 60 0 -
29.10.2020 00:00:00 12,6 8,3 10,4 16,7 18,5 10 6 26 14 SSW 1019,4 60 0 0,0
28.10.2020 23:00:00 12,7 8,6 9,7 16,7 18,5 14 8 25 14 SW 1019,7 60 0 0,0
28.10.2020 22:00:00 12,2 8,7 6,6 16,7 18,5 10 6 17 9 SW 1020,1 60 0 0,0
28.10.2020 21:00:00 10,4 8,3 7,2 16,7 18,5 7 4 10 5 SSW 1019,9 53 0 0,0
28.10.2020 20:00:00 10,6 8,7 6,8 16,6 18,5 7 4 9 5 SW 1020,0 52 0 0,0
28.10.2020 19:00:00 11,6 8,8 8,5 16,6 18,5 7 4 9 5 SW 1019,5 47 0 0,0
28.10.2020 18:00:00 12,6 9,1 9,4 16,6 18,5 8 4 9 5 SSW 1019,0 38 0 0,0
28.10.2020 17:00:00 17,1 8,5 15,1 16,5 18,5 4 2 13 7 NE 1018,9 7 57 0,0
28.10.2020 16:00:00 18,1 8,4 20,2 16,4 18,5 10 5 21 11 ESE 1018,7 18 60 0,0
28.10.2020 15:00:00 18,5 9,0 22,2 16,4 18,5 14 7 20 11 SE 1018,3 19 60 0,0
28.10.2020 14:00:00 18,9 8,5 26,4 16,4 18,5 10 6 18 10 ESE 1018,5 44 60 0,0
28.10.2020 13:00:00 18,9 8,5 26,4 16,5 18,6 12 6 20 11 ESE 1018,5 54 60 0,0
28.10.2020 12:00:00 18,8 7,9 25,7 16,5 18,5 12 7 21 11 ESE 1018,7 19 60 0,0
28.10.2020 11:00:00 18,4 5,9 - 16,6 18,5 7 4 - - SSW 1018,7 43 - -
28.10.2020 10:00:00 - - - - - - - - - - - - - -
28.10.2020 09:00:00 13,9 3,9 11,2 16,7 18,5 15 8 29 16 SW 1018,3 60 60 0,0
28.10.2020 08:00:00 11,6 3,1 8,6 16,8 18,6 20 11 31 17 SW 1018,0 60 47 0,0
28.10.2020 07:00:00 10,6 3,1 8,2 16,8 18,6 13 7 26 14 SW 1017,2 60 0 0,0
28.10.2020 06:00:00 10,5 3,1 8,4 16,9 18,6 14 8 33 18 SSW 1016,8 60 0 0,0
28.10.2020 05:00:00 10,5 3,3 8,5 17,0 18,6 16 9 27 15 SW 1016,3 60 0 -
28.10.2020 04:00:00 11,3 3,1 9,2 17,0 18,6 17 9 32 17 SW 1016,1 60 0 0,0
28.10.2020 03:00:00 10,8 3,3 8,9 17,1 18,6 20 11 31 17 SW 1016,2 60 0 -
28.10.2020 02:00:00 12,2 3,4 9,2 17,1 18,6 22 12 32 17 SW 1016,3 60 0 -
28.10.2020 01:00:00 11,2 3,7 8,8 17,2 18,6 13 7 26 14 SW 1016,2 60 0 0,0
28.10.2020 00:00:00 12,0 3,7 9,9 17,2 18,6 17 9 34 18 SW 1015,8 60 - 0,0
27.10.2020 23:00:00 12,3 4,0 10,7 17,2 18,6 15 8 27 14 WSW 1015,6 60 0 0,0
27.10.2020 22:00:00 13,0 4,2 11,3 17,2 18,6 16 8 28 15 WSW 1015,0 60 0 0,0
27.10.2020 21:00:00 13,5 4,9 11,5 17,2 18,6 16 9 27 15 SW 1014,2 60 0 0,0
27.10.2020 20:00:00 14,2 3,9 11,2 17,1 18,6 16 8 24 13 WSW 1013,6 60 0 0,0
27.10.2020 19:00:00 12,7 6,9 9,1 17,1 18,6 11 6 19 10 SW 1013,1 19 0 0,0
27.10.2020 18:00:00 13,2 8,7 8,6 17,0 18,6 3 2 10 5 SSW 1012,6 17 0 0,0
27.10.2020 17:00:00 16,1 9,0 13,3 17,0 18,6 5 3 22 12 S 1011,6 15 46 0,0
27.10.2020 16:00:00 17,8 7,8 19,8 16,9 18,6 10 6 21 12 SSE 1010,7 29 60 0,0
27.10.2020 15:00:00 18,5 7,9 23,4 16,9 18,6 10 5 22 12 SE 1010,7 20 60 0,0
27.10.2020 14:00:00 18,9 7,9 25,6 16,9 18,6 13 7 23 12 ESE 1010,5 60 60 0,0
27.10.2020 13:00:00 18,9 - 25,6 16,9 18,6 11 6 20 11 NE - 46 60 0,0
27.10.2020 12:00:00 29,5 - 25,8 17,0 18,6 6 3 17 9 NE - 55 60 0,0
27.10.2020 11:00:00 18,9 - 21,9 17,1 18,7 8 4 16 9 S - 40 60 0,0
27.10.2020 10:00:00 17,6 - 19,0 17,1 18,7 13 7 24 13 NNW - 20 60 0,0
27.10.2020 09:00:00 16,2 - 11,1 17,2 18,6 6 3 19 10 NW - 31 60 0,0
27.10.2020 08:00:00 11,8 - 5,6 17,2 18,7 3 2 20 11 SSE - 52 49 0,0
27.10.2020 07:00:00 9,5 - 5,6 17,3 18,6 9 5 16 8 SW - 58 0 0,0
27.10.2020 06:00:00 10,1 - 6,6 17,3 18,6 7 4 14 8 WSW - 60 0 0,0
27.10.2020 05:00:00 13,1 - 9,5 17,4 18,6 10 5 37 20 W - 60 0 0,0
27.10.2020 04:00:00 13,4 - 8,1 17,4 18,6 8 5 26 14 W - 60 0 -
27.10.2020 03:00:00 11,8 - 8,0 17,4 18,6 8 4 25 13 SE - 60 0 0,0
27.10.2020 02:00:00 11,4 - 8,9 17,5 18,6 11 6 24 13 ESE - 60 0 0,0
27.10.2020 01:00:00 15,4 - 12,6 17,5 18,7 20 11 30 16 W - 60 0 0,0
27.10.2020 00:00:00 14,7 - 11,2 17,5 18,7 12 6 36 20 W - 60 0 0,0
26.10.2020 23:00:00 13,6 9,2 10,5 17,5 18,7 10 5 30 16 W 1006,3 60 0 0,0
26.10.2020 22:00:00 15,0 - 11,3 17,5 18,7 8 5 39 21 SW - 60 0 -
26.10.2020 21:00:00 14,0 - 11,8 17,5 18,7 4 2 25 14 SSW - 60 0 0,0
26.10.2020 20:00:00 13,9 - 12,3 17,5 18,7 9 5 22 12 S - 42 0 0,0
26.10.2020 19:00:00 14,4 - 12,6 17,4 18,7 9 5 43 23 E - 60 0 0,0
26.10.2020 18:00:00 14,9 11,7 13,1 17,4 18,7 17 9 39 21 WSW 1005,9 10 0 0,0
26.10.2020 17:00:00 14,7 12,4 13,4 17,3 18,7 13 7 32 17 WNW 1005,6 43 11 0,0
26.10.2020 16:00:00 15,2 12,7 14,1 17,3 18,7 19 11 38 20 NNW 1006,0 6 0 0,0
26.10.2020 15:00:00 19,6 14,0 18,9 17,2 18,6 27 15 56 30 SE 1005,0 31 31 0,0
26.10.2020 14:00:00 20,6 13,5 22,3 17,2 18,7 32 17 59 32 SSE 1005,1 36 29 0,0
26.10.2020 13:00:00 21,6 14,0 22,3 17,2 18,7 31 17 59 32 SSE 1005,9 34 41 0,0
26.10.2020 12:00:00 22,2 14,6 25,6 17,3 18,7 29 15 52 28 SSE 1006,6 18 60 0,0
26.10.2020 11:00:00 21,9 14,8 23,2 17,3 18,7 23 12 46 25 SSE 1007,2 19 60 0,2
26.10.2020 10:00:00 20,3 14,6 20,0 17,4 18,7 20 11 33 18 SE 1007,7 37 60 0,0
26.10.2020 09:00:00 17,7 13,6 13,4 17,4 18,7 12 6 22 12 SSE 1008,6 42 60 0,0
26.10.2020 08:00:00 13,5 11,4 9,2 17,4 18,7 10 5 14 8 SSE 1009,1 33 50 0,0
26.10.2020 07:00:00 10,4 9,6 6,9 17,5 18,7 9 5 12 6 SSW 1009,4 38 0 0,0
26.10.2020 06:00:00 10,5 9,3 7,3 17,6 18,7 2 1 15 8 WSW 1010,0 36 0 0,2
26.10.2020 05:00:00 11,5 10,6 8,2 17,6 18,7 4 2 17 9 SW 1010,5 44 0 0,0
26.10.2020 04:00:00 11,4 10,5 7,3 17,7 18,7 7 4 12 7 SSW 1011,3 32 0 0,0
26.10.2020 03:00:00 11,5 10,6 8,7 17,7 18,7 8 4 14 8 SSW 1012,0 34 0 0,0
26.10.2020 02:00:00 11,3 10,7 9,1 17,7 18,7 7 4 13 7 SW 1013,0 36 0 0,0
26.10.2020 01:00:00 11,3 10,7 9,2 17,8 18,7 7 4 12 7 SW 1013,6 33 0 0,0
26.10.2020 00:00:00 11,6 11,0 8,4 17,8 18,7 6 4 11 6 SW 1014,0 30 0 0,0
25.10.2020 23:00:00 12,0 11,4 9,2 17,8 18,7 6 4 10 6 SW 1014,4 34 0 0,0

tt = Température de l'air
td = dewpoint
tt 5cm = Température de l'air 5cm
tt -20cm = Température de l'air -20cm
tt -100cm = Température de l'air -100cm
ff = Vitesse du vent
fx = gusts
dd = Direction du vent
ppp = reduced air pressure
vv = visibility
sd = Ensoleillement
rr = Quantités de précipitations

stations d'obs. à proximité